Location: Gorze? G�rny
(49.8500°N, 19.5000°E)
Time: 02:57:37
(UTC+00:00)

Cosmos 1515 - Pass Details

Date: 13 May 2021
Orbit: 505 x 513 km, 82.5° (Epoch: 23 June)

Event Time Altitude Azimuth Distance (km) Brightness Sun altitude
Exits shadow 21:30:39 42° 227° (SW) 732 4.2 -19.9°
Maximum altitude 21:31:39 59° 282° (WNW) 593 4.0 -20.0°
Drops below altitude 10° 21:35:25 10° 3° (N) 1,737 7.4 -20.1°
Sets 21:37:35 0° 7° (N) 2,630 8.5 -20.2°
